Wind_Speed
8 7 8 8 9 11 11 12 12 12 11 11 11 11 11 11 11 11 11 10 10 10 7 6 5 4 4 5 6 6 6 6 6 7 8 6 7 12 12 10 8 6 7 6 3 6 8 9 10 8 8 3 5 2 3 3 3 5 2 0 1 0 0 1 1 3 5 3 7 6 6 7 6 6 4 3 6 9 9 9 11 13 15 18 21 23 23 21
8 7 8 9 10 11 12 12 12 11 10 10 10 10 10 11 12 12 11 11 11 10 8 6 5 4 4 5 6 6 6 7 7 10 11 10 9 10 12 10 8 7 6 5 6 7 6 9 8 8 6 4 7 4 4 3 3 4 2 1 2 1 1 3 4 6 10 4 9 7 8 7 5 5 2 3 6 7 11 11 13 18 20 21 23 22 22 21
8 8 9 11 12 13 13 12 12 11 10 9 9 9 10 11 12 12 12 11 11 10 8 6 4 4 5 5 5 5 6 8 9 11 10 10 10 8 8 8 7 7 6 5 8 9 9 12 10 9 8 5 8 4 4 2 2 2 2 2 1 1 1 5 6 5 11 4 5 3 5 8 5 5 2 5 7 4 6 11 12 17 20 21 22 21 21 20
9 10 11 12 13 13 13 12 11 10 10 10 10 10 11 12 13 13 12 11 11 9 7 5 4 4 5 5 5 5 6 8 7 7 8 8 8 7 6 6 6 7 5 5 8 11 10 12 10 10 11 8 12 5 2 1 1 2 2 2 1 2 1 6 6 3 9 5 3 2 0 6 7 6 3 6 7 3 3 10 12 16 19 20 21 20 20 19
11 12 13 13 13 13 13 12 11 11 10 10 11 11 12 13 13 13 12 11 10 9 6 5 4 4 5 4 5 5 4 4 2 6 7 6 6 6 5 5 5 5 5 4 8 12 10 11 10 9 9 7 13 5 1 2 2 1 2 2 1 2 2 6 6 4 5 3 2 1 4 6 9 7 3 3 4 1 2 9 14 16 18 19 20 19 18 18
12 13 13 13 13 13 13 12 12 11 11 12 12 13 14 13 13 12 11 10 9 7 5 4 3 4 5 5 6 5 5 2 2 5 8 7 6 6 5 5 5 5 5 6 11 12 11 11 9 9 7 6 10 4 6 5 4 1 2 2 4 5 4 4 3 9 6 4 4 3 5 6 9 7 5 3 1 2 3 8 14 17 17 17 18 17 17 17
14 14 14 13 13 13 13 12 12 12 12 13 14 15 15 13 11 10 8 8 6 5 4 4 3 4 5 6 6 7 10 6 1 6 7 7 6 6 6 5 6 5 4 7 12 12 10 10 9 9 7 5 9 6 11 9 4 3 2 3 8 10 5 5 9 14 10 7 4 3 4 6 8 6 5 4 5 3 6 10 14 16 17 16 16 16 16 15
15 15 14 14 14 13 13 12 12 12 13 13 15 16 14 12 10 7 6 5 3 3 3 2 3 4 5 6 5 8 12 8 6 7 6 5 5 6 7 6 7 6 3 7 11 12 10 9 9 9 8 4 8 8 9 8 7 5 1 4 4 10 4 4 8 7 6 8 4 3 5 7 4 4 3 7 8 5 7 11 14 15 16 16 15 16 15 14
15 15 15 15 14 14 13 13 12 12 12 13 16 16 14 11 9 6 4 4 4 3 3 2 2 3 5 5 5 8 6 6 9 8 5 5 4 5 6 5 5 5 6 9 10 10 10 9 10 10 11 5 13 9 1 1 4 4 3 5 3 5 0 3 7 5 3 5 2 4 7 5 2 3 3 10 6 6 8 11 14 15 16 15 14 15 15 14
15 16 16 15 15 14 13 13 12 12 12 13 15 15 13 10 8 8 7 7 6 5 5 4 3 2 4 3 6 6 3 2 9 6 4 5 4 5 5 6 6 7 10 11 10 10 10 9 10 10 12 3 14 9 1 3 6 8 9 8 8 5 3 2 6 8 4 2 1 3 6 5 4 3 3 8 5 6 8 11 13 14 14 14 14 13 15 14
15 16 16 16 15 15 14 12 12 11 11 11 13 14 12 8 7 7 7 6 6 6 6 5 6 5 3 4 9 6 5 3 4 3 4 3 4 5 5 7 7 10 11 11 10 9 11 10 10 12 10 6 6 11 9 12 10 8 9 9 7 6 4 2 4 6 5 2 1 3 4 3 3 3 3 3 5 7 8 11 13 13 13 13 14 13 14 15
16 16 16 16 16 15 14 13 11 10 10 10 11 12 11 7 4 3 3 4 5 6 7 7 7 7 4 7 13 5 3 2 4 4 5 5 5 6 7 8 8 10 10 12 12 8 11 9 10 12 9 13 6 7 8 12 11 8 7 5 5 7 3 4 4 4 3 3 4 4 2 4 6 6 4 3 2 3 7 11 13 13 13 13 14 13 14 15
17 16 16 17 16 16 15 13 11 10 9 9 10 10 10 8 4 2 2 3 4 5 7 8 8 9 6 8 9 4 1 3 5 6 6 7 8 7 8 9 9 11 11 12 12 9 10 7 9 13 12 14 7 3 5 9 11 7 5 3 3 5 3 6 5 4 4 4 7 5 2 4 7 6 6 3 1 1 4 9 14 12 13 14 13 13 14 15
17 17 17 17 17 17 16 15 12 10 9 8 9 10 10 8 6 5 5 5 5 5 7 7 9 9 7 7 4 6 7 5 7 8 8 8 9 9 10 10 10 11 10 12 12 11 10 8 9 13 14 13 6 4 7 9 8 7 5 4 4 1 4 8 7 7 4 3 8 6 2 3 7 6 6 4 1 4 5 5 13 13 13 14 14 13 14 14
18 18 18 18 17 17 17 16 14 11 8 8 9 10 10 9 7 6 7 7 6 7 7 7 9 8 9 10 6 8 9 8 10 10 10 10 9 10 10 10 11 10 10 11 12 11 10 10 10 13 14 9 7 8 5 4 5 6 4 3 4 1 5 7 7 8 4 3 6 6 3 1 5 6 9 6 3 8 5 8 11 14 14 14 14 13 12 12
19 18 18 18 18 17 17 17 15 12 9 8 9 10 10 10 9 7 8 9 8 9 7 5 7 9 10 7 5 7 6 9 12 10 11 11 11 11 9 9 9 10 10 10 11 11 10 11 11 13 14 9 7 6 3 4 3 4 3 3 5 1 5 5 6 8 8 7 5 5 3 3 3 7 11 9 6 9 8 12 14 14 16 14 14 14 13 12
19 19 18 18 18 17 17 17 16 14 10 8 9 10 11 11 10 8 8 11 11 11 10 8 6 10 12 7 7 10 8 8 9 10 11 11 12 9 6 8 9 9 10 10 11 12 11 11 11 10 10 9 6 4 4 4 3 2 2 2 6 3 5 6 5 8 10 11 5 6 4 6 3 8 11 12 10 11 12 14 17 14 15 15 14 13 15 13
20 19 19 18 17 17 17 17 17 15 12 9 10 12 13 14 13 11 9 10 12 11 11 11 8 8 10 12 11 8 8 8 7 10 10 11 12 8 7 10 8 8 9 9 11 12 11 10 10 8 7 8 7 6 5 2 2 4 2 2 6 5 4 8 7 8 8 9 8 7 6 7 5 8 11 13 13 14 13 15 17 16 16 15 15 13 14 13
21 20 19 19 17 17 16 16 16 16 13 9 10 13 15 16 14 10 8 9 10 9 7 8 13 6 3 11 9 2 6 7 7 10 10 11 11 9 10 11 9 10 10 8 9 12 10 8 8 7 6 8 8 7 7 4 6 9 4 1 5 8 1 10 9 6 5 5 9 7 5 6 7 7 9 12 14 14 12 15 16 14 17 15 15 14 14 14
22 21 20 19 18 17 16 15 15 16 15 10 10 12 13 12 7 4 6 12 15 15 13 8 17 15 7 8 8 4 5 5 7 10 10 11 10 11 12 12 11 11 10 8 8 12 10 7 7 7 8 12 7 4 7 5 4 7 3 2 7 8 2 10 9 7 4 2 7 9 6 5 8 9 9 11 13 12 12 15 16 13 16 15 15 14 14 14
24 23 21 20 19 17 15 15 14 14 14 11 9 10 10 10 7 3 3 11 18 20 20 15 15 18 11 5 9 5 5 6 8 10 10 11 11 11 11 12 11 8 10 13 11 10 10 7 9 11 12 15 9 9 8 3 3 7 6 5 9 4 3 6 6 6 5 1 4 8 8 8 9 9 10 11 12 13 14 16 16 15 16 15 15 14 13 13
25 24 23 21 19 18 15 14 13 13 13 11 10 9 10 11 10 10 12 13 18 18 20 18 17 16 11 7 7 7 8 8 8 10 10 11 13 11 10 11 10 8 10 12 11 9 8 7 11 13 14 16 12 8 9 6 4 7 6 7 7 2 4 7 6 6 5 0 2 3 5 6 10 7 9 9 8 10 14 18 16 15 16 14 15 14 13 13
26 25 24 23 20 18 15 13 12 11 11 9 9 10 12 13 11 12 13 14 17 17 17 18 18 16 13 13 8 7 10 10 8 11 12 11 14 13 9 9 9 9 10 10 10 8 6 8 11 12 14 15 10 6 9 9 6 7 6 7 7 5 3 1 5 6 4 1 3 5 5 4 7 2 0 2 3 9 11 16 15 12 16 14 14 15 14 14
26 25 25 24 22 19 15 12 9 8 9 10 11 12 13 12 11 13 14 13 13 16 19 18 18 17 16 15 11 10 13 12 10 12 14 13 14 13 10 9 9 9 10 11 12 10 11 12 6 6 11 8 4 5 8 7 6 9 9 8 7 8 9 3 6 6 3 3 1 3 2 5 6 2 1 2 4 3 8 9 14 15 13 14 12 14 14 14
26 25 24 24 23 19 14 9 4 4 8 12 12 9 8 9 9 11 12 11 10 12 16 15 15 16 16 13 11 12 12 12 12 14 16 14 14 11 8 9 7 8 10 10 11 8 12 15 11 8 9 6 5 7 7 6 6 8 9 11 11 9 10 6 3 2 3 1 3 4 4 3 7 8 6 3 3 7 5 3 9 19 12 14 14 14 15 15
25 25 24 23 23 20 12 5 3 6 9 9 8 6 6 7 9 10 8 7 6 6 10 13 12 12 16 15 12 11 11 11 11 14 18 14 15 13 8 6 6 9 10 6 7 6 8 14 13 7 5 8 10 10 10 9 8 6 5 9 9 10 8 7 7 6 4 3 3 8 6 1 5 4 5 5 5 6 7 8 8 17 15 13 17 15 14 15
24 23 24 22 21 20 14 7 7 10 11 7 5 6 8 8 9 9 6 6 5 7 11 12 10 11 15 15 15 10 6 8 10 14 18 13 14 14 10 6 6 7 7 6 5 5 6 12 10 3 4 8 9 8 10 10 9 5 2 7 10 9 6 7 9 6 3 4 5 7 5 3 2 2 3 7 7 6 6 6 9 12 14 12 14 15 15 15
24 22 23 21 18 19 17 13 11 12 13 9 9 9 9 9 10 6 5 6 2 8 10 9 8 8 11 13 17 12 2 8 10 13 17 13 13 14 10 9 9 7 8 8 6 5 6 12 10 8 8 7 7 10 11 12 11 6 3 6 9 11 11 9 7 3 3 5 6 4 4 4 1 4 5 7 7 7 7 8 7 10 13 11 12 12 12 13
23 22 23 21 16 16 17 14 13 12 12 10 11 11 8 9 8 5 6 5 3 7 7 9 9 9 12 14 16 16 7 7 6 11 17 13 13 15 10 8 10 11 11 11 9 3 2 6 7 7 9 7 9 10 7 7 8 5 8 9 5 8 11 10 6 3 4 5 5 5 5 5 0 5 5 6 7 7 8 9 8 11 12 10 10 10 7 8
22 22 22 22 17 15 16 13 9 8 8 10 9 8 7 7 6 6 6 3 4 7 9 9 10 12 14 13 13 15 13 10 5 10 16 13 13 15 13 10 9 11 9 10 12 8 4 4 5 6 10 9 7 4 1 4 9 7 7 8 6 5 3 6 6 5 5 5 4 5 6 6 1 3 3 3 4 7 8 8 9 12 13 12 12 10 8 7
22 22 21 22 18 15 15 10 3 3 5 7 6 6 7 7 5 7 5 2 3 6 10 8 11 13 15 13 11 13 13 11 9 9 11 10 11 12 11 9 7 7 8 7 9 10 9 8 4 6 12 10 6 5 3 4 9 9 6 6 6 2 5 4 4 5 5 4 4 5 5 6 4 1 3 4 4 7 9 9 11 12 14 16 17 14 10 10
22 22 21 20 19 17 14 7 6 6 5 4 4 5 7 6 6 8 6 2 1 5 7 10 12 12 15 14 11 12 12 11 11 10 8 8 8 9 8 7 6 6 7 7 8 9 11 11 8 8 10 10 7 6 5 5 6 6 5 5 3 2 2 4 2 2 3 5 6 3 2 4 0 6 7 6 4 8 9 9 13 14 15 16 20 18 14 13
22 23 21 18 17 16 13 10 13 14 8 4 5 7 7 7 7 9 9 6 2 4 4 8 13 12 13 13 11 12 12 10 12 12 9 9 8 9 11 11 10 8 7 6 7 8 8 10 12 9 8 10 10 7 4 4 6 6 5 3 1 1 2 4 4 3 2 4 4 1 3 3 3 7 8 7 5 7 9 10 14 17 17 16 18 19 14 14
22 22 21 18 14 13 11 9 13 15 10 7 7 7 8 9 8 9 11 10 7 5 2 3 10 13 12 12 11 12 11 10 12 12 9 10 8 8 10 12 14 12 8 7 7 8 7 7 12 10 8 14 10 10 5 2 4 6 4 3 4 4 4 4 3 3 2 2 2 3 1 5 1 6 8 8 6 6 8 10 14 16 18 17 17 17 14 14
22 21 18 14 10 8 7 8 11 12 10 9 8 8 9 8 8 9 9 9 10 8 7 7 8 10 11 11 12 13 11 9 12 13 9 9 9 8 8 10 13 12 10 8 6 5 6 2 13 11 7 13 10 10 8 7 4 3 3 5 5 5 5 5 4 5 5 3 4 3 1 3 5 9 10 9 6 5 4 8 13 14 15 16 16 17 16 17
23 19 13 11 9 7 3 6 10 12 10 10 8 8 9 7 8 8 6 6 8 10 6 9 8 8 9 9 10 13 13 10 11 11 9 10 10 11 10 9 12 13 10 9 4 2 6 1 14 10 5 9 8 8 9 7 2 1 4 5 2 2 3 6 4 4 5 2 3 2 2 5 8 9 9 9 6 6 4 5 9 12 13 13 14 15 16 17
24 20 12 8 7 7 4 3 8 10 10 11 8 8 8 9 12 11 9 8 8 12 8 5 6 8 8 8 8 11 12 10 9 8 8 10 10 11 12 10 11 13 13 11 6 4 4 2 11 8 4 7 9 10 11 8 4 3 2 1 2 2 2 4 3 2 2 2 1 1 2 3 6 4 7 9 5 4 3 2 6 10 11 11 10 12 14 15
25 23 12 5 6 7 6 3 7 10 10 9 9 11 9 10 14 14 14 13 10 8 9 6 5 8 8 8 8 11 11 8 8 8 7 8 7 10 12 10 10 13 13 12 8 4 4 3 5 7 8 9 8 7 7 8 8 7 3 3 2 3 2 2 3 3 2 3 2 0 2 2 5 3 5 7 5 4 0 2 3 5 7 7 5 8 12 13
23 20 9 7 9 7 6 5 8 11 10 8 8 9 9 12 17 19 19 13 7 8 9 9 7 7 7 9 8 10 13 9 7 7 6 6 5 9 11 9 10 12 11 11 9 5 5 5 3 6 5 5 8 4 7 7 8 7 7 4 3 2 2 2 3 3 1 2 2 2 2 3 6 5 7 6 5 7 5 2 3 2 6 9 10 12 13 13
19 14 5 9 8 6 7 8 9 10 9 8 9 8 9 12 15 20 22 12 5 6 8 9 10 7 7 10 12 10 11 11 10 7 6 6 4 5 9 8 8 11 11 10 10 6 4 4 3 3 2 1 5 6 7 6 6 6 6 5 5 3 2 4 4 4 3 4 3 2 2 4 7 6 7 4 2 5 4 3 3 6 10 12 12 13 14 12
16 11 4 9 5 3 7 9 9 9 8 7 10 11 11 11 12 15 18 13 8 8 10 11 12 10 8 9 12 10 7 9 10 8 8 8 8 4 7 9 7 7 9 9 9 7 4 4 5 5 4 5 5 7 10 10 7 6 6 4 4 4 3 4 4 3 4 4 3 3 2 4 6 4 5 4 4 6 5 5 1 7 5 11 8 10 12 10
13 7 2 7 6 3 8 8 8 9 8 8 11 12 12 11 12 13 12 9 7 7 11 13 13 12 10 10 11 8 7 10 10 10 8 9 10 7 8 13 11 10 11 9 8 9 6 4 5 6 6 6 5 4 9 8 3 4 7 4 3 4 4 4 4 3 4 5 3 3 2 2 3 3 5 5 5 6 7 11 8 10 7 7 9 8 9 8
12 12 7 5 9 8 9 7 7 9 8 10 13 15 15 12 9 10 10 8 6 6 8 10 12 12 10 9 11 10 8 9 9 11 11 11 11 10 10 13 11 11 11 7 6 10 8 5 5 5 5 5 5 3 4 4 3 4 7 4 6 5 3 4 4 2 4 5 5 4 2 2 1 2 4 5 6 5 3 10 11 6 9 2 8 8 8 7
16 20 16 9 10 9 9 7 7 8 8 12 14 14 16 13 8 8 9 10 9 8 8 9 11 12 10 10 11 11 9 7 10 11 10 9 9 9 10 11 9 8 8 4 3 6 6 4 4 5 5 5 6 5 3 3 4 6 6 5 5 7 7 6 4 2 4 5 6 6 3 3 5 4 4 6 6 6 5 5 8 7 4 2 5 6 6 6
16 15 13 13 13 12 12 10 9 8 7 10 10 10 13 11 10 12 12 12 13 12 9 9 11 11 11 11 11 12 12 8 9 10 8 9 8 7 9 10 10 8 5 2 3 2 4 5 5 6 7 6 6 5 3 5 4 4 7 5 5 6 7 5 3 4 4 3 4 4 2 4 8 8 5 4 5 6 7 5 5 4 2 3 4 4 5 5
10 7 8 10 14 15 14 14 14 10 9 10 8 7 10 9 10 14 13 13 15 14 12 11 12 12 11 13 13 13 14 13 10 8 9 11 9 8 12 12 12 9 3 10 8 5 6 6 7 7 7 6 5 4 3 6 5 4 6 6 6 7 6 4 4 3 3 3 3 1 2 1 6 7 6 4 4 7 8 8 6 5 3 5 4 4 4 5
7 6 7 4 5 11 12 13 13 10 9 9 6 7 10 9 9 10 13 11 12 13 12 11 11 11 10 12 13 12 13 13 13 12 13 13 11 11 14 14 11 7 2 8 11 6 6 7 7 9 10 9 8 6 8 10 9 8 9 9 9 7 4 4 6 4 3 3 2 2 2 3 3 2 4 5 6 7 9 10 7 4 4 5 4 4 5 4
7 9 13 12 6 7 8 6 8 9 10 10 6 7 10 10 9 8 10 10 9 11 9 9 12 13 13 12 10 10 12 12 12 13 13 12 13 13 10 11 10 8 6 10 13 6 5 8 8 10 11 11 12 11 11 10 10 11 11 8 6 5 4 4 7 6 5 5 4 1 0 2 4 4 3 1 2 1 8 14 12 9 8 7 6 6 6 5
11 12 15 16 12 11 14 14 14 12 10 9 6 7 11 11 11 11 9 9 8 9 8 9 11 13 15 15 11 9 9 10 10 11 12 13 14 13 8 7 10 11 10 11 11 7 7 7 10 13 11 11 12 12 12 11 12 13 11 8 8 7 6 5 7 7 7 7 6 5 4 4 5 6 7 8 8 7 4 7 11 11 9 8 7 6 5 4
13 12 13 17 16 16 18 17 13 10 8 7 7 8 11 12 13 13 11 10 8 8 9 10 11 13 14 15 14 13 11 10 10 10 11 12 12 11 9 8 8 11 12 10 8 9 8 6 10 13 9 8 11 12 12 13 13 13 11 10 10 8 5 5 6 6 6 6 5 5 5 2 3 4 7 9 9 6 5 5 5 6 5 5 6 5 4 4
12 11 12 14 12 12 15 14 11 9 7 7 8 9 10 12 13 13 12 13 13 9 8 9 9 11 13 13 14 15 13 11 13 15 14 10 10 10 8 8 10 8 10 9 8 8 8 7 9 9 7 7 9 12 12 13 13 12 11 11 11 9 7 4 5 6 5 3 4 5 4 2 2 1 1 2 3 2 4 5 3 3 1 3 4 4 4 5
14 12 12 11 9 10 11 11 10 9 7 7 10 11 11 12 13 12 11 12 13 10 10 11 7 6 9 10 8 8 8 8 12 18 16 9 10 15 14 13 15 13 6 7 8 8 8 8 7 7 7 7 9 11 11 11 11 9 9 9 8 8 9 6 6 8 5 3 4 3 1 3 3 3 4 3 2 3 5 6 7 5 0 2 3 4 4 5
Wind_Direction
355 359 2 1 1 358 358 357 356 356 354 353 351 351 353 354 354 352 350 347 340 330 318 301 283 276 275 270 272 273 276 272 267 263 245 222 218 238 249 256 255 237 229 234 232 236 239 248 243 243 246 211 71 75 203 214 124 81 40 160 143 273 222 305 309 242 257 183 138 152 154 122 119 131 131 131 116 119 106 91 106 117 122 123 128 137 141 144
356 359 358 356 355 352 352 351 352 352 351 352 349 349 350 349 349 346 345 343 337 329 320 305 276 264 263 262 268 267 270 271 263 261 250 244 249 248 249 249 241 230 231 225 223 240 257 280 280 269 259 133 107 134 158 206 136 111 225 163 121 183 171 220 230 246 261 209 144 156 144 122 126 133 132 138 116 114 109 101 107 110 117 125 131 139 143 147
1 357 353 350 348 347 348 348 350 350 350 350 346 345 341 341 339 337 337 335 334 326 318 307 275 256 251 255 259 259 262 272 272 264 254 255 262 261 249 236 230 228 227 216 234 263 285 298 309 302 296 110 113 124 142 208 165 150 234 110 118 224 158 228 238 268 280 268 128 133 138 134 129 117 102 107 82 45 115 120 122 122 128 132 137 143 145 149
356 350 346 344 344 345 346 348 349 349 349 347 344 341 335 331 327 327 326 326 328 320 315 302 274 246 246 251 245 252 271 280 272 242 243 256 257 251 244 228 222 223 215 200 250 283 295 293 296 294 308 72 109 155 169 348 271 255 276 96 167 230 243 241 233 254 276 288 79 16 131 129 100 77 69 100 85 319 195 134 136 136 136 140 143 147 148 150
351 347 345 344 345 346 347 347 348 348 348 346 345 340 333 325 317 316 315 317 319 314 310 293 273 242 245 242 238 241 263 289 188 189 229 257 254 233 231 223 214 221 211 215 269 284 283 282 291 285 295 96 123 167 123 36 215 170 349 3 193 224 257 229 196 180 257 302 68 9 354 54 73 72 68 103 112 209 181 132 141 141 142 146 146 149 149 149
357 354 351 350 350 349 348 346 347 347 347 348 348 342 334 325 316 310 306 309 311 307 300 288 265 242 243 234 240 223 227 308 102 212 243 247 247 219 215 215 211 223 215 247 272 277 277 277 284 280 290 111 124 135 139 164 223 164 22 350 301 276 277 264 113 86 89 63 45 35 2 36 88 88 49 10 52 114 126 132 139 142 145 148 148 150 149 150
2 358 356 355 353 351 349 346 346 348 349 351 352 347 340 333 324 314 306 306 308 305 294 287 259 241 243 237 240 224 236 268 268 265 263 235 233 210 209 208 210 223 210 249 263 272 284 284 291 295 317 93 122 126 142 141 104 91 49 25 330 312 314 334 41 70 99 102 70 85 41 47 82 78 43 309 263 144 126 134 140 143 145 149 150 150 150 155
359 356 355 355 353 351 348 346 346 348 351 355 356 353 349 345 339 331 322 320 329 322 306 298 265 245 249 236 246 255 243 232 239 282 291 233 218 205 208 202 207 208 211 258 266 283 294 296 319 331 333 23 97 102 131 123 93 91 70 92 337 310 335 47 72 86 129 112 90 147 97 59 54 70 109 248 245 141 129 137 143 145 145 152 153 152 155 156
357 354 353 352 351 349 346 345 344 347 352 357 1 359 358 1 6 18 28 40 45 27 24 2 305 269 262 238 253 274 239 201 243 275 296 260 229 214 199 190 217 222 243 264 270 282 289 307 337 342 323 6 88 88 122 93 96 127 147 137 180 248 176 115 122 119 145 115 107 160 125 128 169 99 167 246 238 129 139 143 142 148 151 154 154 157 156 153
355 352 351 349 349 346 344 342 341 345 351 357 4 3 6 18 38 55 62 60 53 40 34 17 1 312 267 247 260 267 133 179 264 268 276 270 243 226 189 179 222 249 252 264 272 272 283 311 335 321 304 6 103 117 212 79 116 146 152 171 192 183 143 158 131 118 124 95 83 136 128 153 175 154 194 235 209 142 149 146 146 154 155 154 156 160 156 155
354 352 351 349 348 345 342 339 337 340 346 354 4 6 8 21 51 62 62 54 35 24 13 3 3 328 274 253 263 258 113 138 256 249 244 247 236 227 202 197 221 248 254 265 270 272 284 302 320 308 304 339 100 152 150 110 127 157 150 179 186 127 121 178 138 137 143 109 136 152 136 151 196 216 181 172 172 163 160 151 152 161 158 156 161 158 151 154
352 352 351 349 348 345 342 337 333 333 338 348 356 3 5 4 22 45 43 30 13 9 355 347 346 333 306 254 254 251 94 168 195 205 218 208 224 223 220 229 236 248 254 265 271 280 288 289 300 300 308 318 318 154 149 121 138 173 157 190 180 131 170 205 164 173 172 148 168 172 166 186 209 214 190 177 159 176 177 160 158 165 165 160 161 158 152 158
348 349 349 348 348 346 343 337 332 327 329 337 344 353 357 351 332 307 315 322 333 340 341 339 330 328 308 262 246 212 140 222 201 206 215 211 225 231 232 239 244 249 252 265 276 291 303 300 286 291 297 298 318 84 222 170 148 175 177 237 206 147 198 204 172 170 168 158 169 179 212 197 195 191 198 238 2 231 233 180 166 168 170 164 163 164 158 163
344 344 344 345 345 346 344 339 334 325 319 324 330 334 340 342 319 287 277 281 293 309 325 323 316 322 290 269 236 222 244 229 216 222 221 218 224 231 234 242 246 247 251 259 268 279 298 302 285 283 275 268 291 323 252 195 158 182 199 233 238 177 182 191 174 160 157 160 173 185 272 187 179 184 206 250 266 199 265 227 179 169 174 169 166 170 161 165
340 340 340 341 341 342 343 340 337 327 315 311 316 321 325 328 314 281 261 266 267 280 305 305 310 318 278 263 227 239 255 228 226 227 218 217 222 229 230 241 246 242 250 255 259 268 280 285 278 277 278 267 267 282 268 231 207 201 220 256 257 228 155 174 167 166 165 167 185 199 281 230 170 192 209 227 224 192 239 266 208 173 176 174 169 171 166 171
336 337 338 338 337 338 338 340 338 331 317 303 308 313 313 314 311 283 256 255 255 264 276 288 322 317 290 277 219 237 256 226 227 218 213 216 219 230 226 231 243 240 248 251 252 260 268 273 269 271 284 287 263 263 266 278 268 220 245 301 301 288 148 162 167 176 156 144 197 223 259 315 178 184 203 205 208 202 216 261 243 187 173 178 175 169 169 177
333 334 334 335 335 334 335 336 336 334 320 303 305 306 304 304 303 293 263 246 248 257 261 263 297 289 271 270 247 237 229 222 217 204 208 216 222 233 221 219 237 235 241 249 246 253 257 259 263 259 256 258 261 269 257 261 297 273 248 299 300 274 170 154 156 185 159 144 189 215 219 287 233 171 195 198 200 212 212 247 247 199 173 177 179 175 170 175
330 330 331 331 332 332 332 332 332 334 324 305 302 302 300 298 295 291 263 239 248 256 262 255 248 275 256 235 244 235 207 203 193 201 207 211 223 238 225 221 230 225 232 244 235 238 246 242 253 261 244 240 236 239 251 232 254 265 249 264 294 295 188 137 134 189 175 148 170 193 207 250 228 171 197 200 198 211 213 241 239 194 177 178 180 183 171 171
328 328 328 326 328 329 329 329 328 330 327 308 299 301 300 296 287 273 237 223 239 245 263 225 201 246 277 203 219 184 164 186 190 206 209 206 218 228 228 225 223 221 225 231 214 215 233 235 236 249 253 245 227 233 257 217 216 245 243 244 291 297 259 115 115 158 164 147 166 196 223 219 205 180 200 206 202 211 218 245 246 197 179 179 182 185 173 174
329 328 327 325 324 324 325 326 325 327 327 311 300 303 303 305 286 215 195 219 236 246 268 241 201 232 269 185 181 135 150 197 210 210 208 207 213 218 221 223 224 223 228 238 215 200 219 245 240 240 250 249 250 309 287 230 227 275 303 328 268 278 34 101 120 143 155 165 167 191 214 202 199 185 193 206 207 215 219 239 246 205 179 180 186 183 177 179
329 328 328 326 323 321 320 321 321 322 325 312 299 296 298 329 347 343 303 253 250 247 252 255 226 238 266 195 169 179 200 207 212 213 207 201 211 217 205 212 227 219 221 242 244 211 207 241 248 248 260 259 277 345 336 347 3 307 299 283 272 272 106 131 141 145 156 184 166 190 214 201 191 181 185 200 212 211 211 233 235 199 183 187 186 179 178 180
328 327 327 326 324 323 317 315 319 318 319 308 292 278 280 323 343 328 320 292 279 263 242 244 242 240 254 235 189 200 217 206 200 200 195 194 210 214 183 196 229 224 213 229 249 229 199 237 250 249 265 267 276 320 316 298 292 292 284 267 274 249 159 155 138 136 139 152 275 280 281 193 168 171 180 188 222 224 214 227 227 192 184 192 183 177 179 176
326 325 325 324 323 325 319 313 317 312 314 309 285 269 277 307 323 316 312 292 285 277 246 231 234 234 231 229 209 202 226 226 206 184 184 197 212 216 198 201 224 231 222 209 231 245 213 224 229 227 247 258 264 273 277 277 268 269 263 262 278 277 270 148 143 153 144 206 277 311 315 151 139 115 180 179 259 297 272 241 241 214 187 193 188 177 180 179
325 323 323 322 320 325 323 317 324 324 329 324 295 274 279 300 313 317 312 289 276 270 254 230 223 228 223 221 212 210 232 237 215 181 179 200 212 214 219 225 224 231 235 215 216 246 256 250 247 242 254 272 299 269 256 253 253 258 245 247 274 282 291 288 145 146 179 202 204 295 277 128 133 169 239 240 192 264 285 270 287 274 200 187 199 179 182 186
324 322 322 321 319 322 324 322 329 324 314 305 297 291 289 299 311 319 312 291 270 251 242 221 216 223 214 209 203 207 226 234 224 188 175 200 215 208 220 234 233 235 240 227 216 238 260 267 285 276 265 290 295 274 268 255 255 262 250 245 239 244 281 289 168 181 262 215 134 231 281 112 147 174 180 214 182 166 177 162 292 282 237 192 203 186 182 187
324 323 321 321 319 319 321 318 273 273 287 289 294 311 319 307 307 315 305 282 269 215 189 187 194 197 194 191 186 205 226 221 217 189 173 196 220 220 236 225 214 242 253 248 229 241 252 253 263 260 259 268 255 256 264 265 267 258 277 289 253 216 240 276 272 273 303 335 196 216 277 1 143 160 161 179 201 172 157 151 200 260 259 216 204 189 186 190
326 325 321 321 323 320 317 307 277 266 280 318 339 309 314 308 299 308 293 270 254 177 156 166 170 172 186 181 176 205 230 173 175 179 177 191 213 223 249 231 210 240 260 277 246 225 240 250 264 285 278 266 255 255 245 240 261 267 347 311 281 253 239 257 270 278 330 322 259 222 260 300 152 160 169 172 197 190 177 178 187 235 258 241 215 194 190 195
327 328 322 320 324 319 310 305 296 268 264 307 329 301 303 303 292 290 275 276 224 154 151 158 153 172 186 171 184 210 159 138 164 169 176 193 205 211 233 242 252 241 219 250 247 159 193 238 246 233 241 259 249 249 239 224 234 246 281 277 276 292 298 292 282 304 334 299 280 254 242 282 77 143 171 165 182 200 202 203 189 217 242 248 236 213 196 191
328 330 322 318 321 314 305 301 296 275 256 271 297 292 292 292 285 267 259 267 178 159 155 152 149 177 185 168 195 216 195 188 203 162 169 189 205 218 240 250 267 260 221 228 243 208 184 243 263 242 228 234 237 241 248 250 244 253 310 311 276 262 284 302 309 335 318 284 288 297 264 276 108 145 174 167 178 199 202 205 193 205 228 241 244 245 243 206
329 330 321 316 318 307 301 303 299 296 275 259 274 291 283 271 261 245 238 235 202 167 137 146 162 180 189 178 196 216 212 210 189 158 176 187 200 223 257 270 273 273 245 223 240 266 280 264 312 281 237 244 275 292 309 280 279 282 304 302 259 233 298 327 330 331 295 267 286 291 283 297 294 156 160 137 164 182 180 193 197 201 214 225 233 236 250 230
328 329 319 313 312 298 293 301 299 308 284 257 267 283 262 244 239 244 227 228 253 156 132 160 177 178 192 196 198 202 215 216 170 167 193 186 194 212 237 253 249 263 261 232 232 242 231 221 243 261 253 269 307 303 251 233 266 275 274 267 264 4 19 339 340 341 288 273 282 264 279 298 291 126 118 106 119 158 168 181 191 200 205 214 227 222 219 227
327 325 317 309 303 290 278 258 214 222 245 249 257 250 236 224 224 236 235 254 235 166 175 191 182 183 194 205 215 193 204 223 180 179 210 192 202 212 213 230 211 213 240 227 214 215 219 220 209 217 237 249 258 244 224 206 220 243 249 254 271 35 352 288 296 299 248 249 257 254 317 293 263 91 117 138 138 152 163 177 185 194 199 207 220 219 217 220
327 324 317 308 299 289 273 241 222 232 246 256 252 239 228 232 228 223 238 255 195 162 211 192 178 189 193 200 224 199 195 219 187 182 212 207 212 211 208 228 230 228 236 235 230 209 208 211 199 206 200 202 242 248 199 191 194 212 236 234 164 114 265 267 257 265 238 233 243 87 32 265 143 101 122 141 147 153 154 168 182 190 195 201 212 216 217 210
326 326 319 308 300 287 267 237 221 224 232 236 237 231 221 233 239 230 237 245 231 205 220 208 183 186 195 207 222 204 198 220 200 187 202 209 221 219 209 220 230 242 248 254 255 217 215 202 184 209 188 165 214 249 235 252 207 212 235 181 171 202 245 276 290 306 309 274 261 141 233 289 165 129 130 126 130 145 143 152 168 185 193 195 201 207 207 205
326 328 318 307 306 287 252 222 211 204 207 219 224 225 222 228 236 239 246 249 256 246 207 207 207 191 196 213 226 216 206 215 204 195 207 215 219 225 218 211 214 232 248 256 260 243 282 242 162 189 185 155 193 237 242 268 235 213 246 205 196 197 228 274 299 296 292 294 276 213 149 23 97 124 124 125 128 124 121 138 155 175 186 186 190 193 194 204
326 331 319 300 298 291 252 197 196 185 194 218 222 223 226 235 237 241 256 253 295 308 240 194 209 219 207 205 225 221 203 208 206 197 212 220 224 232 230 219 204 208 232 255 259 245 300 62 138 157 161 157 203 218 209 249 287 320 262 238 238 151 224 280 286 283 294 291 282 264 127 119 123 118 122 137 143 132 135 147 153 160 166 176 186 188 191 196
328 335 323 277 254 254 245 179 182 182 203 222 229 235 232 242 246 250 272 283 322 328 300 220 197 221 228 210 215 212 194 200 207 203 219 219 221 229 230 236 217 201 216 243 262 248 261 118 131 162 203 183 220 233 206 204 208 219 248 334 323 246 248 294 286 279 289 264 271 285 244 163 131 140 142 140 137 122 130 168 148 146 158 178 191 188 191 189
329 334 320 243 191 215 233 204 182 192 212 224 234 247 248 252 253 253 266 279 293 291 278 271 202 196 234 235 211 201 192 198 204 200 227 233 209 203 217 233 217 205 213 224 246 262 244 243 161 194 227 190 192 250 238 195 196 230 285 2 289 252 247 238 265 309 305 274 309 18 284 63 102 136 121 115 110 106 191 258 137 137 148 159 197 201 188 182
329 327 301 194 171 197 218 206 193 202 216 224 230 241 247 257 263 266 273 282 287 259 255 271 251 206 232 254 243 210 191 201 223 208 215 230 187 178 203 216 196 197 209 215 234 249 215 231 208 197 230 181 159 209 246 200 187 229 272 286 251 251 270 236 278 313 306 267 273 212 217 102 92 79 93 123 155 146 182 209 112 171 167 162 197 201 181 176
324 310 261 166 180 214 201 193 197 206 219 228 236 242 241 250 257 262 269 275 276 259 252 262 264 249 242 253 258 241 199 196 213 220 220 204 171 177 196 208 205 189 191 216 241 257 226 203 203 207 224 204 174 193 236 229 187 207 238 240 236 235 246 263 278 287 292 291 288 283 270 99 81 69 99 135 142 110 142 155 152 212 179 166 186 175 161 168
316 292 210 160 201 223 168 183 199 211 226 232 240 251 251 258 263 257 256 250 237 252 263 266 269 273 283 274 256 245 230 222 214 221 237 204 191 219 190 185 216 195 177 212 236 244 242 195 196 220 209 233 231 194 218 229 195 207 240 234 250 265 263 270 272 284 309 309 323 324 315 90 83 75 92 81 50 53 58 88 41 284 187 147 151 142 145 160
306 287 149 163 208 196 172 199 217 214 230 237 238 249 249 254 268 271 271 260 232 238 256 266 271 271 284 293 282 266 252 251 227 207 233 229 202 213 195 175 193 215 191 193 217 218 233 244 230 224 207 240 274 202 221 240 171 214 258 256 249 245 234 262 274 292 304 297 304 294 263 103 69 60 75 70 66 52 46 74 59 310 286 138 130 131 139 149
298 298 307 205 202 209 209 230 236 216 228 242 241 250 249 240 245 262 274 273 255 239 241 254 263 259 258 269 280 288 280 270 250 209 213 235 213 206 213 181 179 229 216 184 203 202 205 246 253 237 216 239 272 249 243 303 353 277 263 262 272 270 249 257 263 260 274 285 294 285 254 152 166 135 110 114 106 96 92 103 118 232 262 122 112 123 133 141
304 298 288 234 193 212 227 238 245 229 228 232 231 242 251 249 249 256 262 258 250 250 250 247 249 249 252 257 264 278 286 282 265 242 227 240 224 204 206 169 158 238 238 185 207 194 189 223 235 243 237 217 235 237 213 213 227 253 253 225 256 295 304 302 312 300 276 293 303 298 316 121 164 176 152 159 155 147 156 141 148 185 213 142 124 127 135 145
306 293 266 226 199 214 232 246 263 275 281 266 249 241 248 250 244 243 253 261 256 253 257 254 249 247 246 252 256 264 272 273 267 264 257 256 253 225 201 163 163 220 252 339 299 244 213 204 192 237 246 222 227 234 239 238 218 239 262 243 223 254 271 284 310 289 277 308 305 296 0 119 162 177 178 187 193 171 155 150 145 128 120 175 170 155 157 152
303 293 261 218 199 212 235 250 261 275 291 295 293 273 261 254 239 231 232 251 259 252 252 254 251 249 240 240 248 250 254 260 264 267 261 251 249 231 212 189 183 203 329 344 311 278 265 228 186 216 242 238 234 206 218 259 259 243 254 255 243 242 250 264 277 285 314 339 318 5 59 163 185 179 181 192 203 187 163 146 127 114 161 213 196 172 174 162
280 300 316 308 213 226 232 231 242 253 251 256 273 284 276 266 258 233 203 217 251 246 245 258 256 253 243 235 241 242 240 246 250 256 264 260 254 244 223 204 192 176 75 305 273 258 282 265 210 213 226 231 241 226 210 228 243 243 236 229 226 217 216 259 269 285 321 309 278 99 71 293 276 216 201 203 214 203 155 132 129 140 189 220 211 190 196 187
280 303 322 341 329 259 254 263 292 297 271 254 257 279 280 270 268 250 194 194 238 239 235 251 249 249 254 249 246 244 238 237 237 244 256 259 262 263 233 195 192 173 170 246 252 236 255 262 248 237 224 218 235 240 226 224 234 241 245 251 246 213 191 257 277 287 299 291 274 237 199 307 318 312 302 308 286 280 116 129 152 176 189 198 200 201 208 202
305 309 315 333 332 298 299 313 317 309 287 277 280 280 280 273 267 265 233 204 217 223 222 240 244 243 248 251 255 253 245 241 235 237 246 250 258 268 255 209 203 193 197 230 238 223 234 253 259 258 239 216 229 241 240 243 244 241 247 264 263 242 223 243 271 276 271 276 291 315 333 355 6 355 360 16 13 15 64 140 164 177 189 192 195 204 207 201
313 324 322 326 321 306 306 307 301 290 275 272 270 261 265 267 267 270 263 244 233 222 217 232 250 251 242 240 241 240 245 255 254 249 250 251 254 254 251 251 236 206 201 219 223 210 212 226 242 255 257 237 238 245 246 248 249 248 255 267 272 270 247 232 261 275 266 271 305 331 321 326 43 30 11 3 360 353 310 268 180 163 191 195 193 205 198 194
333 336 322 313 305 303 307 302 292 286 273 261 260 256 254 253 256 265 272 266 259 251 241 241 254 263 257 248 241 236 239 252 266 271 267 259 272 280 274 279 283 248 204 205 214 203 203 222 232 239 250 250 244 244 246 254 260 258 253 252 261 276 279 274 291 291 285 298 316 320 315 339 69 56 332 290 282 287 303 315 34 92 205 200 189 207 199 192
349 337 324 312 293 288 291 286 283 280 269 261 261 260 260 255 248 248 257 261 255 253 266 272 280 300 286 274 275 284 286 279 282 291 292 283 289 297 294 287 291 294 268 219 214 212 215 224 228 232 241 244 241 239 239 247 257 263 259 251 250 266 273 267 268 271 270 280 289 286 219 150 147 215 236 191 130 44 18 18 34 41 262 200 194 214 206 195
Height
1522 1521 1521 1520 1519 1518 1517 1516 1515 1513 1512 1511 1510 1509 1508 1507 1506 1505 1504 1503 1502 1501 1500 1500 1499 1499 1499 1498 1498 1498 1497 1497 1496 1496 1495 1495 1495 1495 1495 1495 1496 1496 1496 1496 1497 1498 1498 1497 1497 1497 1496 1499 1501 1503 1506 1506 1505 1505 1508 1514 1517 1514 1511 1507 1505 1503 1500 1495 1492 1492 1490 1491 1493 1492 1491 1490 1489 1489 1490 1491 1492 1493 1495 1498 1501 1505 1508 1510
1523 1522 1521 1520 1519 1518 1517 1516 1515 1514 1513 1511 1510 1509 1508 1507 1506 1504 1504 1503 1502 1501 1500 1499 1499 1499 1498 1498 1498 1497 1497 1496 1496 1494 1494 1494 1494 1495 1495 1495 1495 1495 1495 1496 1496 1497 1497 1495 1494 1493 1493 1498 1501 1502 1506 1506 1504 1505 1508 1512 1512 1508 1505 1503 1502 1500 1499 1495 1491 1491 1491 1492 1493 1492 1491 1491 1490 1489 1491 1494 1494 1495 1498 1501 1503 1506 1508 1510
1523 1522 1521 1520 1519 1518 1517 1516 1515 1514 1512 1511 1510 1509 1508 1507 1506 1504 1503 1502 1501 1501 1500 1499 1499 1498 1498 1498 1497 1497 1497 1496 1495 1493 1492 1493 1494 1494 1494 1494 1494 1495 1495 1495 1496 1497 1496 1494 1494 1492 1490 1495 1500 1501 1504 1503 1502 1502 1504 1509 1508 1502 1500 1500 1498 1498 1499 1495 1492 1493 1491 1492 1493 1492 1492 1492 1493 1492 1493 1495 1496 1497 1499 1502 1504 1506 1508 1510
1524 1523 1521 1520 1519 1518 1517 1516 1515 1514 1512 1512 1510 1509 1508 1507 1505 1504 1503 1502 1501 1500 1499 1499 1498 1498 1498 1497 1497 1497 1496 1496 1494 1491 1491 1492 1493 1494 1494 1494 1494 1495 1495 1495 1496 1497 1496 1495 1494 1492 1489 1494 1500 1501 1502 1501 1502 1501 1502 1507 1505 1499 1500 1499 1497 1499 1500 1500 1500 1498 1494 1493 1493 1494 1493 1494 1499 1499 1494 1494 1496 1497 1500 1502 1505 1507 1508 1511
1524 1523 1522 1520 1519 1518 1517 1516 1515 1514 1512 1511 1510 1509 1508 1506 1505 1504 1503 1502 1501 1500 1499 1499 1498 1498 1498 1497 1498 1496 1497 1498 1493 1491 1492 1492 1493 1493 1493 1494 1494 1494 1495 1495 1496 1496 1496 1494 1492 1491 1488 1494 1500 1499 1499 1499 1499 1501 1501 1503 1501 1500 1502 1499 1500 1505 1505 1504 1503 1499 1497 1497 1496 1496 1496 1496 1500 1500 1494 1493 1496 1498 1501 1503 1505 1507 1508 1511
1524 1523 1522 1520 1519 1518 1517 1516 1514 1513 1512 1511 1510 1509 1507 1505 1504 1503 1502 1501 1500 1500 1499 1498 1498 1498 1497 1497 1497 1496 1498 1498 1493 1491 1492 1492 1492 1493 1493 1494 1494 1494 1495 1495 1496 1495 1494 1492 1491 1488 1484 1491 1496 1494 1497 1499 1498 1502 1503 1503 1502 1503 1504 1502 1503 1509 1508 1504 1501 1499 1499 1499 1498 1499 1498 1497 1498 1497 1495 1495 1497 1498 1501 1503 1505 1507 1508 1510
1525 1523 1522 1521 1520 1518 1517 1516 1515 1513 1512 1511 1510 1508 1506 1505 1503 1502 1501 1501 1500 1500 1499 1498 1498 1498 1497 1497 1497 1497 1496 1494 1491 1491 1492 1491 1492 1492 1493 1493 1493 1494 1494 1495 1496 1494 1492 1490 1488 1484 1481 1489 1494 1492 1496 1499 1498 1502 1505 1505 1504 1505 1508 1508 1507 1508 1506 1501 1500 1500 1499 1498 1500 1501 1500 1499 1497 1496 1496 1496 1498 1499 1501 1503 1505 1507 1509 1510
1525 1524 1522 1521 1520 1518 1517 1516 1514 1513 1512 1511 1509 1508 1506 1504 1503 1502 1501 1501 1500 1500 1499 1499 1498 1498 1498 1497 1497 1497 1495 1493 1491 1491 1492 1492 1492 1492 1493 1493 1493 1494 1494 1495 1495 1493 1491 1489 1486 1484 1482 1487 1492 1493 1496 1500 1502 1504 1506 1505 1503 1508 1513 1512 1507 1505 1502 1500 1500 1500 1500 1500 1500 1501 1501 1499 1497 1496 1496 1497 1498 1500 1502 1504 1505 1507 1509 1510
1525 1524 1522 1521 1520 1519 1517 1516 1515 1514 1512 1511 1509 1508 1506 1504 1503 1502 1502 1501 1501 1500 1500 1499 1499 1498 1498 1498 1498 1497 1493 1491 1491 1491 1492 1491 1492 1492 1492 1493 1494 1494 1494 1495 1495 1493 1492 1489 1487 1487 1485 1486 1490 1492 1494 1503 1507 1504 1504 1503 1503 1510 1512 1509 1505 1503 1502 1500 1500 1499 1499 1501 1500 1501 1501 1498 1497 1496 1497 1498 1499 1500 1502 1503 1505 1507 1509 1510
1526 1524 1523 1521 1520 1519 1517 1516 1515 1513 1512 1511 1510 1508 1507 1505 1504 1503 1503 1502 1502 1501 1500 1500 1499 1499 1498 1498 1499 1497 1492 1491 1491 1491 1491 1491 1492 1492 1492 1493 1494 1495 1495 1495 1494 1493 1491 1490 1489 1489 1486 1485 1487 1490 1492 1500 1505 1501 1502 1502 1502 1507 1507 1505 1503 1502 1502 1500 1499 1499 1500 1500 1499 1501 1502 1497 1495 1497 1497 1498 1499 1501 1502 1504 1506 1507 1508 1510
1526 1524 1523 1521 1520 1519 1517 1516 1515 1514 1513 1511 1510 1509 1507 1506 1506 1505 1504 1503 1503 1502 1501 1500 1500 1499 1498 1498 1498 1495 1493 1493 1492 1491 1492 1492 1492 1492 1493 1493 1494 1495 1495 1494 1493 1492 1492 1491 1491 1490 1487 1484 1484 1488 1491 1496 1499 1498 1501 1503 1502 1503 1503 1502 1502 1501 1500 1500 1500 1499 1499 1500 1499 1501 1499 1496 1495 1497 1497 1498 1500 1501 1502 1504 1506 1507 1508 1510
1526 1524 1523 1521 1520 1519 1517 1516 1515 1514 1513 1512 1511 1509 1508 1507 1506 1505 1505 1504 1503 1502 1502 1501 1500 1499 1498 1498 1497 1494 1493 1494 1494 1493 1492 1492 1492 1492 1493 1493 1494 1495 1494 1494 1492 1492 1491 1491 1491 1490 1488 1485 1482 1487 1491 1493 1495 1496 1498 1503 1503 1503 1503 1500 1499 1500 1499 1500 1499 1499 1504 1504 1502 1500 1497 1496 1497 1496 1497 1498 1500 1501 1502 1504 1505 1507 1509 1510
1525 1524 1523 1521 1520 1518 1517 1516 1514 1514 1512 1512 1511 1510 1509 1508 1507 1506 1505 1504 1503 1503 1502 1501 1500 1499 1499 1496 1494 1494 1494 1494 1494 1493 1493 1493 1493 1493 1493 1493 1494 1494 1494 1493 1492 1492 1491 1491 1491 1490 1489 1485 1481 1486 1490 1488 1491 1495 1495 1499 1502 1507 1508 1500 1498 1499 1498 1500 1498 1501 1512 1509 1500 1498 1497 1497 1497 1497 1498 1497 1499 1501 1502 1503 1505 1507 1508 1510
1525 1524 1522 1521 1520 1518 1517 1515 1514 1513 1512 1511 1510 1510 1508 1507 1507 1506 1505 1504 1504 1503 1502 1501 1500 1499 1498 1495 1493 1493 1493 1493 1493 1493 1493 1493 1493 1493 1493 1493 1493 1493 1493 1493 1493 1492 1491 1492 1491 1489 1487 1485 1482 1483 1484 1483 1487 1492 1495 1498 1499 1508 1511 1499 1496 1498 1498 1500 1496 1502 1514 1507 1499 1497 1496 1498 1498 1499 1499 1497 1498 1500 1501 1503 1505 1507 1508 1510
1525 1523 1522 1521 1519 1518 1516 1515 1514 1512 1512 1511 1510 1509 1508 1507 1506 1505 1505 1504 1503 1503 1502 1501 1500 1499 1498 1494 1491 1491 1491 1492 1492 1492 1492 1492 1492 1492 1492 1492 1492 1492 1493 1493 1492 1492 1492 1491 1491 1488 1484 1482 1481 1482 1484 1485 1484 1487 1498 1503 1496 1500 1508 1500 1494 1496 1497 1499 1496 1503 1511 1504 1498 1497 1496 1499 1499 1500 1500 1498 1498 1499 1501 1503 1504 1506 1508 1509
1524 1523 1521 1520 1518 1517 1516 1514 1513 1512 1511 1510 1509 1508 1507 1506 1505 1505 1504 1503 1503 1502 1502 1501 1500 1500 1498 1492 1490 1490 1490 1490 1490 1491 1491 1491 1492 1491 1491 1492 1491 1492 1492 1492 1492 1491 1491 1490 1489 1486 1483 1482 1480 1482 1487 1491 1489 1486 1494 1503 1495 1495 1504 1501 1495 1492 1492 1497 1498 1502 1507 1504 1498 1496 1497 1499 1500 1500 1500 1500 1499 1498 1500 1503 1504 1505 1508 1509
1524 1522 1521 1519 1518 1516 1515 1514 1512 1511 1510 1509 1508 1507 1506 1505 1504 1504 1503 1503 1502 1501 1501 1501 1500 1501 1496 1491 1490 1488 1488 1488 1488 1490 1490 1491 1491 1490 1491 1491 1491 1492 1491 1491 1491 1490 1490 1489 1488 1485 1482 1481 1478 1480 1492 1500 1499 1492 1491 1497 1492 1489 1496 1500 1498 1492 1489 1496 1500 1502 1505 1503 1496 1494 1497 1498 1499 1500 1499 1501 1500 1498 1499 1502 1503 1505 1507 1509
1523 1522 1520 1519 1518 1516 1514 1513 1511 1510 1509 1508 1507 1506 1505 1503 1503 1502 1501 1502 1501 1501 1501 1499 1500 1502 1495 1489 1488 1486 1486 1487 1488 1489 1489 1490 1490 1490 1490 1490 1490 1490 1490 1490 1489 1488 1488 1485 1484 1484 1481 1480 1478 1481 1493 1498 1496 1494 1493 1495 1491 1485 1486 1494 1497 1490 1488 1495 1500 1503 1505 1502 1495 1494 1496 1497 1499 1499 1498 1499 1500 1497 1499 1501 1503 1504 1506 1508
1522 1521 1520 1518 1517 1516 1514 1512 1511 1510 1508 1508 1506 1505 1503 1502 1501 1500 1500 1501 1500 1499 1498 1495 1496 1498 1491 1485 1485 1485 1485 1486 1487 1488 1488 1489 1489 1490 1489 1489 1489 1489 1489 1488 1486 1485 1485 1484 1485 1488 1485 1480 1474 1474 1481 1482 1481 1484 1485 1488 1492 1486 1480 1484 1488 1483 1483 1493 1500 1501 1501 1498 1496 1495 1495 1497 1498 1498 1498 1497 1498 1497 1497 1500 1502 1503 1505 1507
1521 1519 1519 1517 1516 1515 1513 1512 1511 1509 1508 1507 1506 1504 1502 1500 1498 1498 1499 1499 1497 1494 1492 1490 1490 1488 1484 1483 1484 1485 1485 1486 1487 1487 1487 1488 1489 1488 1488 1488 1487 1486 1486 1485 1483 1480 1481 1487 1488 1487 1482 1474 1466 1465 1466 1466 1470 1476 1479 1485 1486 1483 1482 1482 1482 1480 1478 1489 1499 1497 1496 1495 1494 1494 1494 1496 1497 1497 1498 1497 1496 1496 1496 1498 1500 1502 1504 1506
1519 1518 1517 1516 1515 1514 1513 1511 1510 1509 1507 1506 1506 1504 1502 1499 1498 1498 1498 1496 1492 1491 1489 1488 1487 1484 1482 1481 1483 1484 1485 1486 1486 1486 1487 1487 1487 1487 1486 1486 1486 1487 1485 1481 1479 1475 1480 1490 1487 1478 1472 1466 1461 1461 1464 1466 1472 1477 1481 1485 1481 1480 1485 1482 1479 1479 1476 1485 1493 1491 1493 1494 1492 1493 1492 1494 1497 1496 1496 1496 1495 1495 1495 1498 1499 1501 1503 1505
1518 1517 1515 1515 1514 1512 1512 1510 1509 1508 1507 1506 1505 1504 1502 1502 1501 1500 1498 1494 1488 1487 1486 1485 1484 1482 1481 1482 1482 1483 1484 1483 1483 1485 1485 1486 1487 1484 1482 1484 1485 1484 1480 1478 1481 1479 1483 1488 1480 1471 1466 1463 1462 1463 1468 1472 1475 1479 1480 1483 1483 1478 1480 1481 1479 1477 1476 1484 1490 1487 1489 1492 1491 1492 1492 1493 1496 1497 1497 1496 1495 1495 1495 1497 1498 1500 1502 1504
1517 1515 1514 1513 1512 1512 1510 1509 1508 1507 1506 1505 1505 1504 1503 1502 1502 1501 1499 1495 1487 1483 1482 1481 1481 1480 1480 1481 1481 1482 1482 1480 1480 1482 1484 1485 1484 1482 1481 1481 1482 1481 1478 1479 1483 1485 1486 1480 1469 1464 1463 1463 1465 1466 1471 1474 1475 1479 1480 1483 1482 1474 1476 1486 1484 1478 1476 1480 1485 1487 1489 1493 1495 1494 1494 1495 1497 1502 1503 1498 1495 1496 1496 1496 1497 1499 1502 1503
1516 1514 1514 1511 1511 1511 1509 1508 1507 1506 1506 1504 1503 1503 1503 1502 1502 1501 1498 1493 1486 1479 1477 1477 1477 1478 1478 1478 1479 1481 1481 1478 1477 1478 1482 1484 1482 1481 1480 1477 1479 1481 1477 1475 1477 1482 1480 1467 1458 1460 1462 1463 1469 1471 1472 1477 1479 1476 1474 1478 1480 1474 1473 1478 1478 1476 1475 1476 1481 1487 1493 1501 1503 1501 1499 1497 1497 1504 1507 1502 1499 1499 1497 1497 1498 1499 1501 1503
1514 1513 1512 1510 1510 1508 1508 1508 1506 1506 1505 1504 1503 1502 1503 1503 1502 1501 1498 1494 1486 1475 1472 1474 1473 1474 1475 1477 1478 1478 1478 1477 1475 1476 1480 1482 1481 1479 1477 1475 1478 1480 1476 1471 1474 1480 1476 1463 1459 1464 1465 1466 1474 1476 1472 1475 1480 1476 1470 1467 1468 1470 1470 1470 1472 1475 1481 1487 1486 1488 1502 1510 1506 1502 1501 1500 1499 1502 1505 1503 1504 1505 1501 1499 1499 1499 1501 1502
1513 1512 1510 1510 1508 1506 1508 1507 1505 1506 1504 1503 1504 1502 1504 1502 1501 1502 1499 1498 1489 1472 1469 1472 1471 1471 1471 1474 1476 1477 1479 1475 1471 1474 1477 1480 1480 1477 1477 1475 1474 1477 1472 1468 1471 1474 1470 1462 1460 1464 1468 1471 1475 1477 1472 1471 1479 1479 1467 1456 1457 1462 1467 1469 1470 1475 1486 1492 1484 1482 1498 1509 1505 1501 1498 1499 1500 1500 1502 1502 1502 1505 1503 1500 1499 1498 1500 1501
1513 1511 1509 1509 1507 1505 1506 1505 1506 1505 1502 1504 1503 1503 1504 1501 1501 1501 1500 1505 1492 1468 1466 1470 1468 1469 1468 1471 1474 1478 1481 1474 1469 1473 1474 1478 1479 1476 1479 1476 1473 1475 1468 1469 1478 1473 1466 1466 1464 1466 1472 1475 1476 1476 1469 1467 1477 1477 1462 1456 1459 1458 1462 1467 1469 1474 1481 1484 1481 1477 1485 1499 1506 1504 1496 1496 1500 1500 1500 1500 1499 1500 1500 1498 1497 1496 1499 1500
1512 1510 1508 1507 1507 1506 1504 1504 1505 1503 1503 1504 1502 1503 1503 1501 1503 1499 1505 1515 1490 1460 1462 1466 1466 1468 1467 1471 1473 1473 1474 1469 1470 1474 1473 1476 1477 1475 1478 1474 1472 1472 1465 1474 1484 1471 1462 1468 1468 1468 1474 1477 1474 1469 1461 1461 1471 1469 1456 1456 1461 1460 1463 1464 1467 1474 1477 1485 1492 1483 1480 1495 1507 1503 1495 1496 1500 1501 1500 1498 1497 1497 1496 1497 1497 1496 1498 1500
1511 1509 1506 1505 1506 1505 1503 1503 1502 1501 1502 1501 1501 1503 1500 1502 1503 1497 1509 1514 1479 1455 1461 1463 1466 1469 1466 1470 1472 1469 1469 1467 1469 1471 1471 1475 1476 1473 1475 1471 1469 1469 1464 1469 1476 1466 1460 1463 1462 1464 1471 1472 1466 1458 1454 1458 1463 1459 1455 1458 1459 1462 1466 1465 1469 1476 1481 1494 1501 1488 1480 1495 1506 1500 1494 1497 1500 1500 1498 1494 1493 1494 1495 1496 1496 1496 1498 1500
1509 1507 1505 1504 1504 1503 1501 1501 1500 1500 1500 1500 1501 1501 1500 1503 1501 1505 1518 1503 1467 1456 1460 1461 1465 1466 1465 1469 1471 1468 1467 1466 1467 1468 1470 1473 1474 1473 1472 1470 1469 1469 1465 1464 1468 1465 1460 1460 1460 1461 1464 1461 1457 1454 1453 1457 1459 1455 1460 1465 1464 1466 1469 1472 1475 1479 1491 1504 1499 1487 1480 1487 1502 1500 1490 1492 1492 1490 1492 1493 1491 1491 1492 1494 1495 1496 1499 1501
1508 1506 1504 1502 1501 1501 1500 1499 1499 1499 1499 1499 1500 1500 1502 1501 1499 1511 1512 1480 1459 1460 1459 1461 1463 1460 1464 1470 1471 1469 1467 1464 1464 1469 1472 1471 1473 1474 1473 1475 1474 1475 1475 1470 1468 1465 1462 1464 1463 1460 1459 1456 1458 1460 1456 1456 1458 1459 1466 1469 1473 1479 1482 1487 1489 1492 1511 1516 1495 1483 1478 1482 1499 1499 1487 1486 1483 1481 1487 1490 1490 1490 1490 1492 1494 1496 1499 1501
1506 1504 1502 1500 1499 1498 1498 1498 1498 1498 1498 1498 1499 1499 1501 1503 1504 1507 1491 1465 1466 1467 1456 1458 1459 1457 1463 1466 1467 1467 1467 1466 1463 1467 1471 1471 1474 1474 1474 1477 1476 1482 1486 1477 1471 1468 1464 1463 1459 1459 1458 1456 1463 1467 1463 1461 1461 1465 1471 1473 1485 1502 1508 1510 1509 1508 1517 1511 1486 1477 1481 1485 1493 1489 1483 1484 1480 1478 1481 1483 1485 1487 1488 1491 1493 1496 1498 1500
1504 1501 1499 1498 1496 1495 1495 1496 1496 1497 1497 1497 1500 1498 1499 1508 1506 1493 1478 1469 1468 1459 1448 1450 1452 1455 1461 1466 1466 1462 1464 1466 1461 1465 1468 1468 1473 1472 1471 1470 1467 1476 1481 1473 1470 1470 1468 1462 1456 1459 1460 1457 1462 1468 1470 1468 1466 1470 1472 1477 1495 1516 1527 1526 1513 1505 1507 1497 1477 1473 1483 1489 1489 1483 1480 1480 1478 1476 1476 1479 1482 1484 1487 1490 1492 1495 1497 1499
1501 1498 1497 1495 1493 1492 1492 1493 1494 1495 1497 1498 1499 1497 1501 1509 1497 1478 1473 1468 1457 1448 1446 1448 1450 1455 1460 1464 1463 1457 1462 1466 1458 1462 1468 1467 1473 1473 1469 1467 1463 1466 1469 1469 1467 1465 1471 1471 1461 1460 1459 1456 1460 1461 1463 1464 1465 1467 1463 1472 1492 1504 1514 1514 1504 1502 1502 1493 1480 1478 1487 1490 1488 1484 1478 1476 1477 1476 1475 1477 1480 1483 1486 1489 1491 1493 1496 1498
1499 1496 1494 1492 1491 1490 1489 1491 1492 1493 1497 1497 1497 1498 1501 1501 1487 1475 1471 1459 1449 1446 1445 1445 1449 1458 1462 1461 1457 1451 1457 1462 1456 1459 1466 1467 1471 1470 1466 1464 1461 1462 1467 1472 1465 1455 1465 1465 1451 1450 1449 1451 1458 1455 1452 1459 1468 1465 1457 1469 1484 1483 1487 1492 1489 1487 1487 1490 1487 1481 1484 1484 1480 1479 1473 1474 1478 1476 1477 1478 1479 1483 1485 1487 1491 1492 1495 1498
1496 1494 1492 1490 1490 1489 1489 1490 1490 1492 1495 1495 1496 1496 1492 1485 1476 1470 1462 1450 1450 1447 1442 1446 1453 1460 1463 1461 1458 1451 1451 1455 1455 1459 1463 1462 1463 1462 1458 1456 1453 1456 1463 1468 1463 1457 1466 1463 1447 1448 1450 1448 1455 1453 1450 1460 1470 1469 1467 1471 1468 1461 1470 1483 1486 1478 1480 1498 1495 1480 1483 1483 1480 1484 1477 1475 1480 1478 1478 1479 1478 1482 1485 1487 1490 1492 1494 1497
1494 1492 1490 1489 1490 1489 1489 1490 1490 1493 1494 1493 1495 1491 1481 1474 1467 1461 1454 1448 1450 1448 1448 1456 1457 1459 1463 1460 1458 1455 1451 1454 1455 1459 1462 1460 1458 1455 1453 1449 1445 1448 1452 1457 1459 1455 1461 1466 1453 1452 1458 1451 1448 1450 1448 1450 1459 1470 1474 1469 1459 1459 1465 1476 1489 1489 1493 1506 1496 1480 1484 1485 1489 1495 1483 1478 1484 1482 1481 1480 1478 1481 1485 1487 1489 1491 1494 1495
1493 1491 1489 1489 1490 1489 1488 1490 1490 1493 1493 1492 1492 1486 1477 1471 1462 1456 1453 1449 1450 1451 1456 1461 1455 1454 1459 1459 1456 1450 1451 1457 1456 1457 1461 1459 1454 1448 1448 1449 1444 1443 1443 1449 1459 1452 1453 1469 1462 1451 1456 1451 1445 1454 1458 1451 1451 1459 1463 1458 1463 1479 1483 1482 1490 1496 1502 1509 1499 1486 1484 1484 1491 1494 1485 1486 1490 1487 1486 1484 1480 1481 1484 1486 1489 1491 1493 1493
1493 1491 1488 1487 1489 1489 1488 1490 1490 1492 1492 1490 1489 1484 1476 1470 1462 1455 1453 1450 1450 1455 1460 1459 1454 1453 1454 1454 1452 1445 1446 1455 1455 1455 1458 1457 1453 1444 1441 1445 1443 1442 1441 1444 1454 1451 1450 1469 1471 1452 1448 1449 1450 1462 1470 1463 1455 1455 1458 1457 1461 1472 1479 1480 1481 1483 1494 1504 1502 1494 1490 1488 1488 1485 1485 1490 1488 1485 1488 1486 1483 1484 1484 1486 1489 1491 1492 1493
1494 1492 1487 1486 1488 1488 1487 1489 1490 1490 1489 1486 1483 1478 1471 1467 1461 1456 1455 1453 1453 1457 1459 1457 1454 1455 1453 1451 1448 1441 1441 1448 1449 1453 1454 1450 1452 1448 1439 1440 1441 1440 1442 1443 1448 1449 1449 1463 1473 1461 1451 1457 1463 1464 1465 1464 1462 1464 1468 1468 1466 1464 1466 1473 1474 1470 1479 1492 1495 1495 1497 1493 1485 1480 1482 1485 1482 1482 1484 1484 1485 1485 1485 1487 1488 1489 1491 1492
1494 1491 1486 1485 1487 1486 1486 1488 1488 1486 1485 1481 1477 1473 1467 1463 1459 1454 1453 1452 1453 1455 1457 1456 1455 1454 1454 1453 1446 1438 1440 1444 1444 1449 1449 1443 1448 1450 1439 1437 1440 1439 1445 1450 1450 1451 1452 1458 1469 1468 1463 1466 1463 1453 1450 1453 1455 1462 1466 1465 1467 1468 1470 1482 1486 1474 1471 1481 1486 1492 1501 1497 1483 1477 1479 1480 1479 1479 1480 1483 1487 1487 1486 1487 1487 1488 1489 1491
1494 1489 1485 1485 1486 1485 1486 1486 1482 1480 1480 1477 1473 1469 1465 1461 1459 1455 1451 1451 1453 1455 1456 1456 1455 1454 1456 1454 1445 1438 1441 1444 1442 1445 1447 1440 1441 1443 1436 1433 1438 1438 1443 1451 1450 1446 1448 1454 1462 1466 1464 1461 1454 1444 1442 1443 1445 1453 1459 1458 1461 1465 1470 1486 1494 1483 1476 1478 1476 1480 1495 1497 1483 1474 1477 1478 1478 1478 1479 1483 1489 1493 1490 1486 1486 1487 1489 1491
1493 1488 1485 1485 1485 1485 1486 1483 1478 1476 1474 1470 1466 1464 1460 1458 1457 1457 1455 1455 1455 1456 1457 1457 1455 1454 1455 1452 1448 1445 1444 1443 1439 1438 1442 1440 1434 1433 1430 1430 1436 1436 1436 1443 1446 1443 1447 1456 1464 1466 1462 1456 1450 1445 1443 1443 1449 1459 1459 1456 1459 1460 1462 1469 1474 1475 1478 1480 1477 1482 1496 1499 1485 1474 1475 1477 1476 1478 1479 1481 1488 1494 1492 1487 1487 1488 1488 1490
1494 1488 1485 1484 1484 1484 1484 1481 1476 1471 1466 1463 1461 1460 1458 1454 1454 1457 1458 1458 1457 1456 1457 1456 1454 1453 1452 1449 1450 1449 1448 1449 1444 1433 1433 1437 1432 1427 1427 1429 1436 1438 1436 1440 1443 1443 1451 1460 1467 1474 1478 1476 1472 1467 1462 1458 1460 1465 1462 1457 1459 1459 1460 1463 1463 1469 1479 1480 1478 1486 1497 1495 1483 1475 1475 1475 1475 1476 1478 1480 1484 1488 1488 1487 1488 1488 1489 1490
1494 1487 1482 1481 1482 1482 1480 1476 1472 1467 1463 1460 1457 1457 1456 1454 1454 1457 1458 1457 1455 1454 1456 1455 1451 1450 1449 1450 1452 1449 1447 1450 1448 1438 1435 1438 1433 1426 1427 1431 1436 1438 1438 1439 1440 1443 1452 1458 1465 1477 1487 1493 1494 1488 1479 1470 1464 1463 1461 1457 1459 1460 1463 1468 1471 1479 1486 1482 1478 1485 1493 1490 1482 1477 1476 1475 1474 1476 1477 1480 1481 1483 1486 1488 1488 1488 1489 1489
1496 1488 1479 1475 1477 1477 1476 1473 1471 1469 1466 1464 1461 1457 1457 1456 1453 1453 1455 1457 1455 1453 1454 1453 1450 1450 1451 1452 1455 1455 1450 1448 1448 1445 1443 1443 1436 1428 1428 1431 1435 1439 1441 1442 1441 1444 1451 1452 1457 1468 1475 1479 1484 1479 1471 1467 1467 1468 1466 1462 1461 1460 1461 1466 1474 1482 1483 1482 1483 1483 1484 1486 1482 1476 1476 1474 1473 1475 1476 1478 1480 1482 1485 1488 1488 1489 1489 1489
1497 1489 1479 1477 1477 1475 1471 1468 1467 1466 1463 1464 1465 1461 1458 1457 1454 1451 1452 1455 1454 1453 1453 1452 1450 1452 1454 1454 1456 1457 1453 1450 1450 1450 1448 1444 1436 1429 1428 1429 1433 1439 1443 1444 1444 1448 1456 1457 1454 1459 1463 1464 1466 1466 1462 1464 1466 1467 1465 1462 1460 1459 1461 1468 1476 1477 1475 1483 1490 1482 1476 1482 1480 1472 1472 1472 1470 1471 1472 1477 1480 1481 1484 1487 1488 1489 1489 1489
1496 1489 1483 1482 1481 1476 1470 1466 1465 1463 1460 1459 1461 1460 1460 1459 1457 1453 1451 1452 1452 1452 1454 1455 1453 1453 1452 1452 1455 1456 1455 1454 1455 1453 1450 1447 1440 1435 1433 1431 1433 1439 1443 1445 1445 1447 1458 1463 1455 1454 1459 1458 1458 1459 1457 1460 1462 1460 1458 1458 1457 1458 1462 1469 1472 1469 1470 1480 1484 1476 1473 1479 1476 1469 1468 1467 1466 1467 1470 1476 1480 1481 1483 1485 1487 1488 1488 1488
1495 1491 1487 1486 1484 1478 1473 1470 1468 1467 1464 1461 1462 1464 1464 1462 1458 1453 1448 1449 1452 1450 1453 1458 1456 1452 1451 1450 1453 1457 1457 1458 1459 1456 1451 1449 1446 1443 1442 1439 1437 1437 1440 1445 1445 1444 1455 1462 1455 1453 1456 1455 1456 1457 1455 1457 1460 1457 1454 1455 1455 1455 1458 1464 1468 1466 1467 1471 1471 1469 1472 1475 1473 1469 1467 1465 1466 1468 1471 1476 1478 1480 1482 1483 1485 1487 1486 1487
1498 1495 1493 1490 1487 1481 1477 1473 1471 1469 1466 1465 1466 1466 1463 1462 1460 1453 1445 1447 1452 1450 1450 1455 1454 1450 1449 1449 1451 1455 1454 1453 1456 1454 1450 1450 1449 1445 1444 1443 1438 1436 1439 1444 1445 1444 1453 1461 1456 1453 1458 1458 1457 1456 1455 1457 1458 1456 1455 1455 1454 1455 1457 1461 1464 1464 1466 1469 1468 1468 1475 1476 1471 1468 1467 1468 1470 1471 1472 1474 1475 1478 1481 1482 1484 1485 1486 1487
1501 1499 1498 1496 1490 1484 1481 1476 1472 1470 1467 1466 1466 1463 1461 1460 1458 1455 1449 1446 1447 1448 1447 1449 1451 1449 1447 1446 1448 1449 1446 1447 1450 1448 1445 1447 1448 1445 1443 1441 1438 1438 1440 1443 1445 1445 1452 1458 1454 1455 1466 1467 1459 1458 1459 1456 1455 1458 1459 1458 1457 1459 1461 1462 1464 1464 1466 1471 1472 1474 1479 1478 1471 1467 1468 1470 1470 1472 1473 1473 1475 1479 1481 1482 1483 1484 1485 1486
1501 1500 1499 1498 1493 1487 1484 1478 1473 1472 1469 1464 1462 1459 1458 1455 1451 1452 1454 1448 1443 1446 1448 1447 1449 1452 1453 1451 1449 1448 1446 1447 1450 1448 1444 1444 1445 1444 1443 1441 1439 1440 1441 1441 1443 1444 1448 1455 1455 1459 1470 1470 1460 1458 1459 1459 1468 1471 1463 1456 1457 1461 1463 1464 1465 1463 1463 1466 1472 1476 1477 1474 1469 1467 1468 1469 1470 1473 1475 1475 1477 1481 1482 1483 1484 1484 1484 1485